Weather History for St. Francis, KS

Change the Weather History Date:

Tuesday, October 30, 2012

  Actual Average Record
Temperature  
Mean Temperature 58 °F -  
Max Temperature 75 °F 60 °F 57 °F (2013)
Min Temperature 41 °F 32 °F 34 °F (2013)
Degree Days  
Heating Degree Days 8    
Growing Degree Days 8 (Base 50)    
Moisture  
Dew Point 32 °F    
Average Humidity 42    
Maximum Humidity 71    
Minimum Humidity 17    
Precipitation  
Precipitation 0.00 in - - ()
Sea Level Pressure  
Sea Level Pressure 30.04 in    
Wind  
Wind Speed 9 mph ()    
Max Wind Speed 14 mph    
Max Gust Speed 20 mph    
Visibility 9.9 miles    
Events      
Averages and records for this station are not official NWS values.
T = Trace of Precipitation, MM = Missing Value Source: Averaged Metar Reports

Daily Weather History Graph

Daily Weather History Graph

Search for Another Location

Airport:

Trip Planner

Search our weather history database for the weather conditions in past years. The results will help you decide how hot, cold, wet, or windy it might be!

Date:

Astronomy

Oct. 30, 2012 Rise Set
Actual Time 8:14 AM CDT 6:46 PM CDT
Civil Twilight 7:46 AM CDT 7:14 PM CDT
Nautical Twilight 7:14 AM CDT 7:46 PM CDT
Astronomical Twilight 6:43 AM CDT 8:17 PM CDT
Moon 7:18 PM CDT (10/30) 9:02 AM CDT (10/30)
Length of Visible Light 11h 28m
Length of Day
10h 32m
Full, 99% of the Moon is Illuminated
Oct 30
Full
Nov 6
Last Quarter
Nov 13
New
Nov 20
First Quarter
Nov 28
Full

Hourly Weather History & Observations

Time (CDT) Temp. Windchill Dew Point Humidity Pressure Visibility Wind Dir Wind Speed Gust Speed Precip Events Conditions
12:15 AM 45.5 °F 40.8 °F 34.2 °F 65% 30.03 in 10.0 mi SW 9.2 mph - N/A   Clear
12:35 AM 45.5 °F 41.3 °F 33.8 °F 64% 30.03 in 10.0 mi SW 8.1 mph - N/A   Clear
12:55 AM 48.2 °F - 33.8 °F 58% 30.02 in 10.0 mi SW 11.5 mph - N/A   Scattered Clouds
1:15 AM 48.6 °F - 32.9 °F 55% 30.02 in 10.0 mi SW 12.7 mph - N/A   Scattered Clouds
1:35 AM 48.9 °F - 33.4 °F 55% 30.02 in 10.0 mi WSW 10.4 mph - N/A   Mostly Cloudy
1:55 AM 48.2 °F - 33.8 °F 58% 30.02 in 10.0 mi WSW 12.7 mph - N/A   Scattered Clouds
2:15 AM 47.7 °F - 33.8 °F 59% 30.02 in 10.0 mi WSW 11.5 mph - N/A   Scattered Clouds
2:35 AM 47.3 °F - 33.8 °F 59% 30.02 in 10.0 mi WSW 10.4 mph - N/A   Scattered Clouds
2:55 AM 46.6 °F - 33.8 °F 61% 30.01 in 10.0 mi SW 9.2 mph - N/A   Scattered Clouds
3:35 AM 44.8 °F 39.4 °F 33.3 °F 64% 30.02 in 10.0 mi WSW 10.4 mph - N/A   Clear
3:55 AM 44.6 °F 39.2 °F 33.3 °F 64% 30.02 in 10.0 mi SW 10.4 mph - N/A   Clear
4:15 AM 43.2 °F 38.4 °F 32.9 °F 67% 30.02 in 10.0 mi WSW 8.1 mph - N/A   Clear
4:35 AM 41.7 °F 35.2 °F 32.9 °F 71% 30.01 in 10.0 mi SW 11.5 mph - N/A   Clear
4:55 AM 43.2 °F 37.9 °F 33.3 °F 68% 30.01 in 10.0 mi WSW 9.2 mph - N/A   Clear
5:35 AM 47.3 °F - 34.5 °F 61% 30.01 in 10.0 mi WSW 5.8 mph - N/A   Clear
5:55 AM 52.7 °F - 35.2 °F 52% 30.02 in 10.0 mi WNW 9.2 mph - N/A   Clear
6:15 AM 54.7 °F - 34.7 °F 47% 30.02 in 10.0 mi WNW 13.8 mph 19.6 mph N/A   Clear
6:35 AM 54.7 °F - 34.3 °F 46% 30.02 in 10.0 mi WNW 12.7 mph 16.1 mph N/A   Clear
6:55 AM 53.6 °F - 34.5 °F 48% 30.03 in 10.0 mi WNW 10.4 mph - N/A   Clear
7:15 AM 53.2 °F - 34.7 °F 49% 30.03 in 10.0 mi WNW 12.7 mph - N/A   Clear
7:35 AM 52.2 °F - 35.1 °F 52% 30.03 in 10.0 mi WNW 11.5 mph - N/A   Clear
7:55 AM 52.3 °F - 34.9 °F 51% 30.03 in 10.0 mi NW 11.5 mph 18.4 mph N/A   Clear
8:15 AM 52.7 °F - 34.7 °F 50% 30.04 in 10.0 mi NW 13.8 mph - N/A   Clear
8:35 AM 52.7 °F - 34.9 °F 51% 30.04 in 10.0 mi WNW 12.7 mph 19.6 mph N/A   Clear
8:55 AM 52.0 °F - 34.9 °F 52% 30.05 in 10.0 mi WNW 12.7 mph - N/A   Clear
9:15 AM 53.6 °F - 35.1 °F 50% 30.06 in 10.0 mi WNW 11.5 mph 18.4 mph N/A   Clear
9:35 AM 55.6 °F - 35.2 °F 46% 30.07 in 10.0 mi NW 10.4 mph - N/A   Clear
10:15 AM 59.4 °F - 35.1 °F 40% 30.08 in 10.0 mi NW 10.4 mph - N/A   Clear
10:35 AM 61.7 °F - 34.9 °F 37% 30.08 in 10.0 mi NNW 11.5 mph 17.3 mph N/A   Clear
10:55 AM 63.5 °F - 34.9 °F 34% 30.08 in 10.0 mi NW 12.7 mph - N/A   Clear
11:15 AM 65.3 °F - 34.3 °F 32% 30.08 in 10.0 mi NW 11.5 mph 18.4 mph N/A   Clear
11:55 AM 68.0 °F - 33.6 °F 28% 30.08 in 10.0 mi NNW 11.5 mph - N/A   Clear
12:15 PM 70.0 °F - 32.7 °F 25% 30.09 in 10.0 mi North 12.7 mph 17.3 mph N/A   Clear
12:35 PM 71.1 °F - 32.4 °F 24% 30.08 in 10.0 mi North 11.5 mph 18.4 mph N/A   Clear
1:15 PM 72.9 °F - 32.0 °F 22% 30.07 in 10.0 mi North 13.8 mph 19.6 mph N/A   Clear
1:35 PM 72.9 °F - 31.8 °F 22% 30.06 in 10.0 mi North 10.4 mph - N/A   Clear
1:55 PM 73.8 °F - 31.6 °F 21% 30.05 in 10.0 mi NNE 13.8 mph - N/A   Clear
2:15 PM 73.9 °F - 31.3 °F 21% 30.05 in 10.0 mi North 10.4 mph 19.6 mph N/A   Clear
2:35 PM 74.5 °F - 30.7 °F 20% 30.04 in 10.0 mi North 10.4 mph - N/A   Clear
2:55 PM 74.1 °F - 29.7 °F 19% 30.03 in 10.0 mi NNE 9.2 mph 16.1 mph N/A   Clear
3:15 PM 74.7 °F - 28.8 °F 18% 30.03 in 10.0 mi North 11.5 mph - N/A   Clear
3:35 PM 74.8 °F - 26.6 °F 17% 30.02 in 10.0 mi NNE 10.4 mph - N/A   Clear
3:55 PM 74.7 °F - 27.7 °F 18% 30.02 in 10.0 mi North 10.4 mph - N/A   Clear
4:15 PM 74.3 °F - 27.1 °F 17% 30.02 in 10.0 mi ENE 5.8 mph - N/A   Clear
4:35 PM 74.1 °F - 26.8 °F 17% 30.02 in 10.0 mi NNE 8.1 mph - N/A   Clear
4:55 PM 73.6 °F - 27.3 °F 18% 30.02 in 10.0 mi North 8.1 mph - N/A   Clear
5:15 PM 74.3 °F - 26.8 °F 17% 30.02 in 10.0 mi NNE 6.9 mph - N/A   Clear
5:35 PM 72.9 °F - 27.3 °F 18% 30.03 in 10.0 mi NNE 6.9 mph - N/A   Clear
5:55 PM 71.8 °F - 27.9 °F 20% 30.03 in 10.0 mi NNE 4.6 mph - N/A   Clear
6:15 PM 69.4 °F - 28.4 °F 22% 30.03 in 2.0 mi ENE 4.6 mph - N/A   Haze
6:35 PM 65.3 °F - 30.0 °F 27% 30.03 in 10.0 mi East 8.1 mph - N/A   Clear
7:15 PM 55.9 °F - 32.0 °F 40% 30.03 in 10.0 mi ESE 6.9 mph - N/A   Clear
7:35 PM 54.3 °F - 32.2 °F 43% 30.04 in 10.0 mi SE 8.1 mph - N/A   Clear
7:55 PM 54.5 °F - 32.0 °F 42% 30.04 in 10.0 mi SE 9.2 mph - N/A   Clear
8:15 PM 54.0 °F - 31.8 °F 43% 30.04 in 10.0 mi SE 10.4 mph - N/A   Clear
8:35 PM 54.0 °F - 32.0 °F 43% 30.04 in 10.0 mi SE 9.2 mph - N/A   Clear
8:55 PM 53.4 °F - 31.6 °F 44% 30.04 in 10.0 mi SSE 9.2 mph - N/A   Clear
9:15 PM 50.9 °F - 31.8 °F 48% 30.05 in 10.0 mi Calm Calm - N/A   Clear
9:35 PM 49.3 °F - 32.0 °F 51% 30.05 in 10.0 mi SW 4.6 mph - N/A   Clear
9:55 PM 49.1 °F - 32.0 °F 52% 30.05 in 10.0 mi SW 8.1 mph - N/A   Clear
10:15 PM 48.6 °F - 32.0 °F 53% 30.05 in 10.0 mi SW 8.1 mph - N/A   Clear
10:35 PM 49.3 °F - 32.0 °F 51% 30.04 in 10.0 mi SW 9.2 mph - N/A   Clear
10:55 PM 48.6 °F - 32.0 °F 53% 30.05 in 10.0 mi WSW 8.1 mph - N/A   Clear
11:15 PM 47.3 °F - 32.0 °F 55% 30.05 in 10.0 mi SW 9.2 mph - N/A   Clear
11:35 PM 48.2 °F - 32.0 °F 54% 30.04 in 10.0 mi SW 10.4 mph - N/A   Clear
11:55 PM 48.7 °F - 32.5 °F 54% 30.04 in 10.0 mi SW 10.4 mph - N/A   Clear